Faribault, MN

2:06 PM CDT on July 21, 2017 (GMT -0500)
Faribault Municipal

Weather History for KFBL - July, 2013

Change the Weather History Date:

Thursday, July 18, 2013

  Actual Average Record
Temperature  
Mean Temperature 82 °F -  
Max Temperature 91 °F 85 °F 95 °F (1957)
Min Temperature 73 °F 63 °F 35 °F (2002)
Cooling Degree Days 17    
Growing Degree Days 32 (Base 50)    
Moisture  
Dew Point 72 °F    
Average Humidity 70    
Maximum Humidity 94    
Minimum Humidity 52    
Precipitation  
Precipitation 0.00 in - - ()
Sea Level Pressure  
Sea Level Pressure 30.00 in    
Wind  
Wind Speed 7 mph (SSW)    
Max Wind Speed 17 mph    
Max Gust Speed 25 mph    
Visibility 10 miles    
Events      
Averages and records for this station are not official NWS values.
T = Trace of Precipitation, MM = Missing Value Source: NWS Daily Summary

Daily Weather History Graph

Daily Weather History Graph

Search for Another Location

Airport or City:

Trip Planner

Search our weather history database for the weather conditions in past years. The results will help you decide how hot, cold, wet, or windy it might be!

Date:

Astronomy

Jul. 18, 2013 Rise Set
Actual Time 5:46 AM CDT 8:52 PM CDT
Civil Twilight 5:11 AM CDT 9:26 PM CDT
Nautical Twilight 4:26 AM CDT 10:11 PM CDT
Astronomical Twilight 3:32 AM CDT 11:05 PM CDT
Moon 4:48 PM CDT (7/18) 1:39 AM CDT (7/18)
Length of Visible Light 16h 15m
Length of Day
15h 05m
Waxing Gibbous, 77% of the Moon is Illuminated
Jul 18
Waxing Gibbous
Jul 22
Full
Jul 29
Last Quarter
Aug 6
New
Aug 14
First Quarter

Hourly Weather History & Observations

Time (CDT) Temp. Heat Index Dew Point Humidity Pressure Visibility Wind Dir Wind Speed Gust Speed Precip Events Conditions
12:14 AM 78.8 °F - 71.6 °F 78% 30.15 in 10.0 mi South 4.6 mph - N/A   Clear
12:34 AM 78.8 °F - 71.6 °F 78% 30.15 in 10.0 mi South 5.8 mph - N/A   Clear
12:54 AM 78.8 °F - 71.6 °F 78% 30.15 in 10.0 mi South 6.9 mph - N/A   Clear
1:14 AM 77.0 °F - 71.6 °F 83% 30.14 in 10.0 mi South 4.6 mph - N/A   Clear
1:34 AM 77.0 °F - 71.6 °F 83% 30.14 in 10.0 mi South 3.5 mph - N/A   Clear
1:54 AM 75.2 °F - 71.6 °F 89% 30.14 in 10.0 mi South 4.6 mph - N/A   Clear
2:14 AM 75.2 °F - 71.6 °F 89% 30.14 in 10.0 mi Calm Calm - N/A   Clear
2:34 AM 75.2 °F - 71.6 °F 89% 30.14 in 10.0 mi Calm Calm - N/A   Clear
2:54 AM 75.2 °F - 71.6 °F 89% 30.14 in 10.0 mi South 5.8 mph - N/A   Clear
3:14 AM 75.2 °F - 71.6 °F 89% 30.13 in 10.0 mi South 3.5 mph - N/A   Clear
3:34 AM 73.4 °F - 71.6 °F 94% 30.12 in 10.0 mi South 3.5 mph - N/A   Clear
3:54 AM 73.4 °F - 71.6 °F 94% 30.12 in 10.0 mi South 4.6 mph - N/A   Clear
4:14 AM 73.4 °F - 71.6 °F 94% 30.12 in 10.0 mi South 4.6 mph - N/A   Clear
4:34 AM 73.4 °F - 71.6 °F 94% 30.11 in 10.0 mi South 3.5 mph - N/A   Clear
4:54 AM 73.4 °F - 71.6 °F 94% 30.11 in 10.0 mi South 3.5 mph - N/A   Clear
5:14 AM 73.4 °F - 71.6 °F 94% 30.10 in 10.0 mi Calm Calm - N/A   Clear
5:34 AM 73.4 °F - 71.6 °F 94% 30.10 in 10.0 mi South 3.5 mph - N/A   Clear
5:53 AM 73.4 °F - 71.6 °F 94% 30.10 in 10.0 mi South 4.6 mph - N/A   Clear
6:14 AM 73.4 °F - 71.6 °F 94% 30.10 in 10.0 mi South 4.6 mph - N/A   Clear
6:34 AM 75.2 °F - 71.6 °F 89% 30.09 in 10.0 mi South 3.5 mph - N/A   Clear
6:53 AM 75.2 °F - 71.6 °F 89% 30.09 in 10.0 mi South 4.6 mph - N/A   Clear
7:14 AM 77.0 °F - 71.6 °F 83% 30.08 in 10.0 mi South 6.9 mph - N/A   Clear
7:34 AM 78.8 °F - 71.6 °F 78% 30.08 in 10.0 mi SSW 8.1 mph - N/A   Clear
7:53 AM 78.8 °F - 71.6 °F 78% 30.08 in 10.0 mi SSW 8.1 mph - N/A   Clear
8:14 AM 80.6 °F 84.6 °F 71.6 °F 74% 30.07 in 10.0 mi South 8.1 mph - N/A   Clear
8:34 AM 80.6 °F 84.6 °F 71.6 °F 74% 30.07 in 10.0 mi SSW 8.1 mph - N/A   Clear
8:53 AM 82.4 °F 87.2 °F 71.6 °F 70% 30.06 in 10.0 mi SSW 8.1 mph - N/A   Clear
9:14 AM 82.4 °F 87.2 °F 71.6 °F 70% 30.06 in 10.0 mi SSW 8.1 mph - N/A   Clear
9:34 AM 84.2 °F 89.6 °F 71.6 °F 66% 30.06 in 10.0 mi SSW 10.4 mph 16.1 mph N/A   Clear
9:53 AM 84.2 °F 90.9 °F 73.4 °F 70% 30.05 in 10.0 mi SSW 9.2 mph - N/A   Clear
10:14 AM 84.2 °F 90.9 °F 73.4 °F 70% 30.04 in 10.0 mi SSW 11.5 mph - N/A   Clear
10:34 AM 86.0 °F 93.4 °F 73.4 °F 66% 30.04 in 10.0 mi SSW 10.4 mph 17.3 mph N/A   Clear
10:54 AM 86.0 °F 93.4 °F 73.4 °F 66% 30.03 in 10.0 mi SW 13.8 mph 20.7 mph N/A   Clear
11:14 AM 87.8 °F 95.6 °F 73.4 °F 62% 30.03 in 10.0 mi SSW 12.7 mph 17.3 mph N/A   Clear
11:34 AM 87.8 °F 95.6 °F 73.4 °F 62% 30.03 in 10.0 mi SSW 12.7 mph 17.3 mph N/A   Clear
11:54 AM 87.8 °F 95.6 °F 73.4 °F 62% 30.03 in 10.0 mi SSW 12.7 mph 19.6 mph N/A   Clear
12:14 PM 89.6 °F 98.2 °F 73.4 °F 59% 30.02 in 10.0 mi SSW 13.8 mph 20.7 mph N/A   Clear
12:17 PM 89.6 °F 98.2 °F 73.4 °F 59% 30.02 in 10.0 mi SSW 12.7 mph 20.7 mph N/A   Clear
12:51 PM 89.6 °F 98.2 °F 73.4 °F 59% 30.00 in 10.0 mi SSW 10.4 mph 23.0 mph N/A   Clear
1:11 PM 89.6 °F 96.2 °F 71.6 °F 55% 29.99 in 10.0 mi SW 13.8 mph 25.3 mph N/A   Clear
1:34 PM 89.6 °F 96.2 °F 71.6 °F 55% 29.99 in 10.0 mi SW 16.1 mph 21.9 mph N/A   Clear
1:54 PM 89.6 °F 96.2 °F 71.6 °F 55% 29.98 in 10.0 mi South 17.3 mph 20.7 mph N/A   Clear
2:14 PM 89.6 °F 96.2 °F 71.6 °F 55% 29.97 in 10.0 mi SW 13.8 mph 20.7 mph N/A   Clear
2:34 PM 91.4 °F 98.4 °F 71.6 °F 52% 29.96 in 10.0 mi SW 13.8 mph 25.3 mph N/A   Clear
2:54 PM 91.4 °F 100.1 °F 73.4 °F 55% 29.96 in 10.0 mi SW 12.7 mph 19.6 mph N/A   Clear
3:14 PM 91.4 °F 98.4 °F 71.6 °F 52% 29.95 in 10.0 mi SW 17.3 mph 25.3 mph N/A   Clear
3:33 PM 91.4 °F 98.4 °F 71.6 °F 52% 29.94 in 10.0 mi SSW 11.5 mph 16.1 mph N/A   Clear
3:54 PM 91.4 °F 98.4 °F 71.6 °F 52% 29.93 in 10.0 mi SSW 15.0 mph 24.2 mph N/A   Clear
4:14 PM 91.4 °F 98.4 °F 71.6 °F 52% 29.92 in 10.0 mi SW 16.1 mph 23.0 mph N/A   Clear
4:33 PM 91.4 °F 98.4 °F 71.6 °F 52% 29.91 in 10.0 mi SSW 15.0 mph 21.9 mph N/A   Clear
4:54 PM 91.4 °F 98.4 °F 71.6 °F 52% 29.90 in 10.0 mi SSW 17.3 mph 25.3 mph N/A   Clear
5:14 PM 91.4 °F 98.4 °F 71.6 °F 52% 29.89 in 10.0 mi SSW 15.0 mph 23.0 mph N/A   Clear
5:34 PM 91.4 °F 98.4 °F 71.6 °F 52% 29.89 in 10.0 mi SSW 15.0 mph 20.7 mph N/A   Clear
5:54 PM 91.4 °F 98.4 °F 71.6 °F 52% 29.88 in 10.0 mi SSW 10.4 mph 16.1 mph N/A   Clear
6:14 PM 89.6 °F 96.2 °F 71.6 °F 55% 29.87 in 10.0 mi SSW 12.7 mph 23.0 mph N/A   Clear
6:34 PM 89.6 °F 96.2 °F 71.6 °F 55% 29.87 in 10.0 mi SSW 12.7 mph 16.1 mph N/A   Clear
6:54 PM 89.6 °F 96.2 °F 71.6 °F 55% 29.86 in 10.0 mi SSW 9.2 mph - N/A   Clear
7:14 PM 87.8 °F 93.8 °F 71.6 °F 58% 29.86 in 10.0 mi SSW 9.2 mph 17.3 mph N/A   Clear
7:34 PM 87.8 °F 93.8 °F 71.6 °F 58% 29.85 in 10.0 mi SSW 10.4 mph 16.1 mph N/A   Clear
7:54 PM 87.8 °F 93.8 °F 71.6 °F 58% 29.85 in 10.0 mi SSW 8.1 mph 19.6 mph N/A   Clear
8:14 PM 86.0 °F 91.8 °F 71.6 °F 62% 29.85 in 10.0 mi SSW 9.2 mph - N/A   Clear
8:34 PM 84.2 °F 88.4 °F 69.8 °F 62% 29.85 in 10.0 mi SSW 8.1 mph 16.1 mph N/A   Clear
8:54 PM 84.2 °F 88.4 °F 69.8 °F 62% 29.85 in 10.0 mi SSW 9.2 mph - N/A   Clear
9:14 PM 84.2 °F 88.4 °F 69.8 °F 62% 29.84 in 10.0 mi SSW 10.4 mph - N/A   Clear
9:34 PM 84.2 °F 88.4 °F 69.8 °F 62% 29.84 in 10.0 mi South 9.2 mph - N/A   Clear
9:54 PM 82.4 °F 86.3 °F 69.8 °F 66% 29.84 in 10.0 mi SSW 9.2 mph - N/A   Clear
10:13 PM 82.4 °F 86.3 °F 69.8 °F 66% 29.85 in 10.0 mi South 9.2 mph 16.1 mph N/A   Clear
10:34 PM 82.4 °F 86.3 °F 69.8 °F 66% 29.84 in 10.0 mi SSW 11.5 mph - N/A   Clear
10:54 PM 82.4 °F 86.3 °F 69.8 °F 66% 29.84 in 10.0 mi SSW 9.2 mph - N/A   Clear
11:13 PM 80.6 °F 83.9 °F 69.8 °F 70% 29.84 in 10.0 mi South 9.2 mph - N/A   Clear
11:34 PM 80.6 °F 83.9 °F 69.8 °F 70% 29.83 in 10.0 mi South 8.1 mph - N/A   Clear
11:54 PM 80.6 °F 83.9 °F 69.8 °F 70% 29.83 in 10.0 mi SSW 9.2 mph - N/A   Clear